Probability
3 6 15 20 16 16 15 7 1 0 0 0 0 0 0 0 0 0 0 0 0 0 0 0 0 0 0 0 0 0 0 0 0 0 0 0 0 0 0 0 0 0 0
3 6 13 14 11 12 12 5 1 0 0 0 0 0 0 0 0 0 0 0 0 0 0 0 0 0 0 0 0 0 0 0 0 0 0 0 0 0 0 0 0 0 0
2 3 7 8 5 5 5 2 0 0 0 0 0 0 0 0 0 0 0 0 0 0 0 0 0 0 0 0 0 0 0 0 0 0 0 0 1 0 0 0 0 0 0
1 1 2 4 3 1 0 0 0 0 0 0 1 0 0 0 0 0 0 0 0 0 0 0 0 0 0 0 0 0 0 0 0 0 0 3 7 9 8 8 6 2 0
2 3 2 3 4 1 0 0 0 0 0 0 0 0 0 0 0 0 0 0 0 0 0 0 0 0 0 0 0 0 0 0 0 0 1 10 24 32 35 33 24 11 4
4 5 4 3 3 1 0 0 0 0 0 0 0 0 0 0 0 0 0 0 0 0 0 0 0 0 0 0 0 0 0 0 0 0 7 26 47 58 58 50 37 22 14
4 4 3 1 1 0 0 0 0 0 0 0 0 0 0 0 0 0 0 0 0 0 0 0 0 0 0 0 0 0 0 0 0 3 19 46 62 62 50 34 25 21 19
1 2 1 0 0 0 0 0 0 0 0 0 0 0 0 0 0 0 0 0 0 0 0 0 0 0 0 0 0 0 0 0 0 6 24 42 48 39 22 10 6 8 11
1 1 1 0 0 0 0 0 0 0 0 0 0 0 0 0 0 0 0 0 0 0 0 0 0 0 0 0 0 0 0 0 0 3 11 17 18 13 5 1 0 1 2
1 3 4 3 1 0 0 0 0 0 0 0 0 0 0 0 0 0 0 0 0 0 0 0 0 0 0 0 0 0 0 0 0 0 0 1 2 1 0 0 0 0 0
4 8 12 9 3 0 0 0 0 0 0 0 0 0 0 0 0 0 0 0 0 0 0 0 0 0 0 0 0 0 0 0 0 0 1 2 2 0 0 0 0 0 0
14 14 17 16 7 2 0 0 0 0 0 0 0 0 0 0 0 0 0 0 0 0 0 0 0 0 0 0 0 0 0 0 0 0 3 7 5 1 0 0 0 0 1
31 19 17 21 14 5 1 0 0 1 0 0 1 1 0 0 0 0 1 1 1 0 0 0 0 0 0 0 0 0 0 0 0 0 3 8 5 1 0 0 2 7 11
38 21 18 31 30 21 11 5 5 9 8 7 6 2 0 0 0 1 4 4 2 1 1 1 0 0 0 0 0 0 0 0 0 0 4 10 10 4 0 1 7 19 30
40 22 19 42 57 53 38 24 23 28 23 17 8 2 0 1 7 15 19 15 8 7 12 14 9 5 4 2 0 0 0 0 4 7 14 24 27 14 6 5 12 27 40
57 41 34 54 79 79 57 43 40 34 32 26 24 24 20 16 21 36 46 43 34 29 35 37 26 14 9 4 1 1 1 2 11 23 32 41 41 28 20 19 22 30 38
83 74 61 65 84 82 59 48 40 35 43 53 63 68 61 47 42 54 69 74 68 56 52 48 34 19 11 5 3 3 3 4 13 26 35 38 34 30 32 35 37 38 39
98 93 79 74 86 82 68 62 56 59 73 85 92 92 83 66 56 65 75 78 73 58 46 37 24 14 9 5 4 4 3 3 6 12 17 18 17 19 26 36 46 47 42
100 96 87 86 91 91 88 87 87 89 94 94 90 84 73 54 47 56 58 52 46 36 26 16 9 5 4 3 2 2 2 2 2 2 3 4 6 9 11 21 39 44 35
100 99 97 97 98 98 98 99 99 96 90 81 73 66 52 32 24 29 29 22 16 13 9 3 1 0 0 0 0 0 1 1 1 0 0 1 3 3 2 6 17 22 19
100 100 100 100 100 100 100 100 99 93 79 62 49 39 26 14 8 10 8 4 2 2 2 1 0 0 0 0 0 0 0 0 0 0 0 0 0 0 0 0 2 4 4
100 100 100 100 100 100 100 100 97 85 63 38 23 14 8 3 2 1 1 0 0 0 0 0 0 0 0 0 0 0 0 0 0 0 0 0 0 0 0 0 0 0 0
100 100 100 100 100 100 100 99 91 73 47 23 10 5 2 0 0 0 0 0 0 0 0 0 0 0 0 0 0 0 0 0 0 0 0 0 0 0 0 0 0 0 0
100 100 100 100 100 99 99 97 89 70 45 23 9 3 1 0 0 0 0 0 0 0 0 0 0 0 0 0 0 0 0 0 0 0 0 0 0 0 0 0 0 0 0
100 100 100 100 99 98 96 94 87 69 43 20 6 1 0 0 0 0 0 0 0 0 0 0 0 0 0 0 0 0 0 0 0 0 0 0 0 0 0 0 0 0 0
100 100 100 100 99 97 93 91 82 61 34 12 2 0 0 0 0 0 0 0 0 0 0 0 0 0 0 0 0 0 0 0 0 0 0 0 0 0 0 0 0 0 0
Wind_Speed
16 16 16 15 13 12 12 12 13 13 13 12 12 12 11 11 10 10 10 10 11 11 11 11 12 12 12 11 10 9 8 7 5 4 3 4 5 5 5 5 5 7 9
20 17 16 15 13 12 12 13 13 13 13 12 12 12 12 11 10 9 9 9 9 9 10 10 11 11 10 9 8 7 6 5 4 3 2 3 5 5 5 5 6 6 8
18 16 15 14 13 12 12 12 12 12 13 12 12 12 12 11 10 8 8 8 8 8 8 9 10 9 8 7 6 5 3 4 6 6 6 6 7 6 6 7 8 8 8
17 15 14 15 13 12 12 12 12 12 13 13 12 12 11 11 10 8 8 8 7 8 7 9 9 8 7 6 4 3 3 6 8 10 6 4 7 9 7 7 7 8 8
15 15 16 15 14 12 11 12 13 13 13 13 12 12 11 10 9 8 8 8 8 9 8 9 9 8 6 5 3 2 4 8 10 10 3 8 7 9 8 8 6 6 6
16 16 16 16 14 12 12 11 12 13 13 12 11 11 10 9 8 7 7 8 9 9 9 9 9 7 6 5 3 3 6 9 10 8 2 7 9 9 10 9 8 6 6
15 17 15 15 14 13 12 11 11 11 11 11 10 9 8 7 6 6 7 9 9 9 9 9 8 7 5 4 2 3 7 11 9 7 2 8 9 11 11 9 8 6 5
15 17 14 14 14 13 12 11 10 9 9 9 8 7 6 5 5 6 7 8 8 8 8 8 6 5 3 1 2 4 7 11 9 4 10 9 10 10 10 8 7 6 6
16 17 13 13 12 12 12 12 10 9 8 8 7 7 6 6 6 6 6 7 8 8 7 6 5 3 2 2 3 6 8 10 9 3 9 7 9 8 8 7 6 6 6
13 16 14 13 12 11 11 12 11 10 9 9 8 8 7 7 7 7 8 8 9 8 7 6 4 4 4 5 7 9 9 9 9 2 8 7 10 8 7 5 5 5 5
12 13 13 13 12 12 11 11 11 11 10 10 9 9 7 6 7 7 8 10 9 9 8 7 7 7 7 8 10 11 8 6 7 5 8 11 10 8 5 4 3 3 3
12 12 14 14 13 11 11 10 9 9 9 9 7 8 6 3 4 7 10 11 11 11 10 10 10 9 9 6 9 11 5 6 4 5 9 15 12 9 5 3 1 2 2
14 12 14 14 12 11 9 10 8 7 8 8 8 7 6 6 6 5 5 7 8 9 8 8 8 7 3 1 1 3 2 3 4 3 9 14 12 10 7 4 3 3 5
15 12 14 12 10 10 7 7 7 7 7 5 5 5 4 3 3 5 5 7 6 5 5 5 4 4 2 2 3 3 3 2 3 4 6 11 11 10 8 7 6 7 8
12 9 9 9 8 5 4 2 4 6 7 8 5 4 3 1 1 2 2 2 3 3 2 3 5 5 3 3 3 4 4 5 4 3 4 9 9 8 8 7 8 9 9
10 7 7 7 9 7 4 1 4 5 4 7 5 5 3 4 4 4 4 5 5 4 4 4 5 4 3 4 5 5 5 5 5 5 2 5 8 7 8 9 10 11 12
11 8 7 7 10 7 6 5 3 4 5 4 6 6 6 5 3 3 3 4 3 3 5 5 6 4 4 5 4 5 4 5 5 5 5 3 2 8 11 12 11 12 13
12 9 8 10 12 8 6 5 3 5 6 6 6 6 7 6 4 4 6 5 4 4 5 5 5 5 5 5 5 5 4 4 5 5 5 5 4 5 7 12 13 14 15
11 9 9 9 13 10 7 5 6 7 7 7 6 6 6 6 5 6 6 4 4 5 5 5 5 4 5 5 5 5 3 4 5 8 7 6 4 5 6 8 13 16 17
9 7 7 9 12 11 8 6 6 7 7 7 7 6 6 7 7 5 7 6 5 4 3 2 1 2 3 4 6 6 4 5 5 6 8 7 4 5 6 6 4 5 12
9 6 6 8 10 9 8 8 7 7 7 7 7 9 8 8 7 6 5 4 3 3 2 2 2 4 4 3 4 4 4 5 7 4 4 4 4 5 5 5 3 4 4
11 8 6 7 9 9 7 6 6 7 7 8 7 6 7 6 5 6 4 2 4 1 1 1 3 2 4 4 4 4 4 4 3 5 4 4 6 6 7 8 6 4 4
12 9 7 7 7 7 10 8 8 7 8 7 7 5 5 5 6 5 4 4 4 3 4 3 4 4 3 5 4 2 3 3 6 5 7 5 5 4 5 6 7 5 6
11 8 7 7 7 8 9 11 11 8 7 7 6 5 5 5 5 5 4 4 4 3 4 4 7 3 4 4 4 3 3 3 2 4 5 5 6 6 6 6 6 6 6
10 9 8 8 8 7 7 8 7 7 7 5 6 5 4 6 4 4 5 4 2 2 5 4 3 2 3 4 4 5 5 4 3 4 6 5 4 4 4 4 4 5 6
9 10 10 9 8 7 8 7 8 8 7 7 5 5 3 5 5 5 5 2 1 3 3 2 2 2 1 1 2 4 4 4 4 5 6 6 5 4 5 5 6 5 5
Wind_Direction
110 114 111 106 102 97 99 112 119 121 118 118 120 121 116 108 100 94 89 87 88 92 94 91 87 84 81 76 70 62 54 44 33 28 47 96 107 102 83 57 34 104 107
112 115 112 110 108 105 104 110 117 119 119 121 121 119 116 112 106 100 93 86 88 94 97 99 98 95 90 82 74 63 47 20 347 330 298 195 150 121 97 71 62 106 114
109 117 118 111 109 108 107 108 109 112 114 115 116 115 116 115 111 106 98 93 95 101 108 112 109 104 98 91 82 67 35 332 312 312 289 229 154 134 112 94 94 112 113
119 130 124 118 112 111 109 111 111 112 112 112 113 115 117 117 114 110 104 101 100 98 101 110 114 113 108 102 91 66 355 320 315 315 300 133 132 132 115 101 109 121 127
115 116 125 128 125 124 121 120 120 120 120 120 121 121 119 116 114 112 110 107 103 104 112 119 120 116 110 104 89 38 336 317 317 303 281 120 120 125 108 92 96 120 132
121 122 131 134 133 132 131 131 131 131 130 128 126 125 125 126 125 124 120 113 109 113 117 113 108 106 102 91 65 11 331 317 315 295 226 132 118 113 101 92 88 99 124
130 124 133 137 139 143 147 147 144 142 140 135 133 132 135 138 137 130 122 118 116 115 111 106 103 100 94 82 38 346 322 311 296 286 98 95 105 107 102 95 87 84 99
126 120 130 141 147 153 158 157 154 153 148 139 137 138 145 148 139 126 120 119 118 117 114 111 108 107 102 76 327 310 300 295 304 330 89 92 101 104 106 106 99 89 85
124 126 139 145 155 162 167 167 163 160 153 144 143 151 161 163 155 142 130 120 117 118 120 120 123 138 169 218 256 266 271 280 287 279 104 99 104 108 111 117 111 101 93
130 135 142 152 154 161 166 167 166 165 160 156 161 172 174 171 168 159 149 133 134 138 140 143 159 193 216 234 248 252 260 279 267 215 106 112 112 108 107 110 111 106 102
130 135 140 147 153 158 156 156 164 169 170 168 176 185 186 189 171 173 156 149 157 163 166 175 194 213 223 231 243 250 260 256 253 105 113 121 118 115 114 118 126 127 119
141 146 149 155 162 161 152 153 167 174 172 187 181 181 191 186 182 174 155 170 178 181 182 203 213 226 228 223 227 244 252 259 292 128 130 135 133 132 129 130 160 197 205
152 167 158 163 158 166 159 166 176 174 167 187 169 175 177 188 186 166 171 178 190 191 195 210 214 225 209 52 276 241 292 347 312 70 133 141 143 146 151 168 208 238 241
154 175 160 153 154 171 159 169 169 147 159 146 150 177 174 191 180 185 189 187 193 198 189 192 216 150 111 238 269 288 314 297 345 70 148 151 153 160 171 191 215 231 237
149 168 141 144 140 126 103 187 144 124 143 135 161 184 165 109 267 55 57 48 16 44 57 3 33 36 13 319 323 348 359 347 336 339 133 163 166 176 192 211 232 246 250
134 141 136 149 134 127 140 193 101 128 117 146 158 148 116 79 55 40 41 38 25 43 43 11 22 9 353 10 344 348 350 336 340 346 345 167 179 194 215 228 236 244 251
143 140 136 158 140 146 169 162 159 147 143 126 111 101 86 79 77 71 81 67 24 31 39 33 11 7 5 350 338 349 343 334 328 338 328 317 218 211 222 231 238 243 250
150 144 166 172 149 162 179 165 159 119 102 87 93 87 78 77 60 64 78 57 13 34 43 33 24 8 2 348 342 336 331 318 303 284 273 270 270 272 238 226 231 236 243
142 156 184 169 151 167 162 132 103 91 95 97 96 93 83 72 66 80 78 50 24 50 49 34 31 4 344 338 313 295 309 314 313 305 299 284 288 305 300 275 245 239 249
142 172 183 152 153 159 145 133 120 111 104 96 91 89 89 74 54 70 91 64 44 60 61 58 352 320 299 281 292 305 296 283 287 282 283 283 289 296 292 301 313 271 258
157 184 187 171 153 147 142 144 138 127 118 109 100 89 80 78 73 60 79 92 79 70 43 321 30 341 320 317 312 303 299 303 286 288 316 325 340 340 333 332 355 9 342
167 185 193 158 146 148 139 133 131 124 111 99 92 92 93 88 79 79 59 47 55 6 262 44 62 357 329 338 325 316 312 299 332 2 347 350 5 358 346 336 350 342 335
167 171 180 156 159 145 130 123 110 99 109 115 120 111 108 104 92 78 64 49 26 344 67 48 51 25 351 323 310 341 324 326 343 324 351 339 351 341 323 320 316 325 331
150 155 157 144 131 124 127 131 138 148 142 132 133 132 131 98 79 72 57 61 28 355 66 36 66 12 342 320 343 356 348 357 318 309 310 321 340 321 306 307 315 317 299
125 132 131 122 118 122 119 130 136 117 113 122 120 133 142 119 99 78 70 60 21 22 68 57 65 16 332 5 353 341 338 320 282 287 304 310 292 278 293 314 311 304 299
118 126 124 115 106 98 94 92 95 103 117 123 127 142 176 141 127 106 103 83 40 53 56 52 80 297 61 11 331 320 318 320 324 313 302 301 302 312 324 315 293 278 290